Regional Weather Roundup
Issued by NWS

Home | Current Version | Previous Version | Text Only | Print | Product List | Glossary On
Versions: 1 2 3 4 5 6 7 8 9 10 11 12 13 14 15 16 17 18 19 20 21 22 23 24 25 26 27 28 29 30 31 32 33 34 35 36 37 38 39 40 41 42 43 44 45 46 47 48 49 50
000
ASUS43 KDTX 231301
RWRMI
MICHIGAN HOURLY REGIONAL WEATHER ROUNDUP
NATIONAL WEATHER SERVICE DETROIT/PONTIAC MI
900 AM EDT TUE SEP 23 2014

NOTE: "FAIR" INDICATES FEW OR NO CLOUDS BELOW 12,000 FEET WITH NO
SIGNIFICANT WEATHER AND/OR OBSTRUCTION TO VISIBILITY.

MIZ047>049-052>055-059>063-066>070-074>076-081>083-231400-
SOUTHEAST LOWER MICHIGAN

CITY           SKY/WX    TMP DP  RH WIND       PRES   REMARKS
ADRIAN         SUNNY     48  46  93 CALM      30.35R
ALMA           SUNNY     50  46  86 SW5       30.31S
ANN ARBOR      SUNNY     48  45  89 CALM      30.34R
BAD AXE        SUNNY     50  48  95 SW6       30.30R
CARO           SUNNY     49  47  92 SW8       30.31R
DETROIT CITY   SUNNY     54  46  74 SW3       30.35R
DETROIT        MOSUNNY   52  46  80 CALM      30.35R
FLINT          SUNNY     52  46  80 SW3       30.34R
GROSSE ILE     SUNNY     54  48  82 CALM      30.33S
HILLSDALE      SUNNY     50  50  99 CALM      30.34S
HOWELL         SUNNY     48  46  92 SW5       30.34R

CITY           SKY/WX    TMP DP  RH WIND       PRES   REMARKS
JACKSON        SUNNY     49  46  90 CALM      30.34R
LAMBERTVILLE   SUNNY     50  46  87 CALM      30.35S
LANSING        SUNNY     51  45  79 S5        30.34R
LAPEER         FAIR      49  47  93 CALM      30.33R
MASON          SUNNY     48  46  93 CALM      30.34R
MONROE         SUNNY     48  46  93 CALM      30.33S
MT. CLEMENS    MOSUNNY   55  49  78 W3        30.31R
PONTIAC        SUNNY     51  46  83 SW3       30.33R
PORT HOPE        N/A     53  47  79 SW9       30.26R
PORT HURON     SUNNY     48  48 100 CALM      30.32S
TRI CITIES     SUNNY     51  46  83 SW9       30.31R
TROY           SUNNY     54  46  76 SW3       30.35R
SAGINAW HB     SUNNY     50  50 100 SW9       30.30S
$$
MIZ043>046-050>051-056>058-064>065-071>073-077>080-231400-
SOUTHWEST LOWER MICHIGAN

CITY           SKY/WX    TMP DP  RH WIND       PRES   REMARKS
BATTLE CREEK   SUNNY     50  45  83 SW5       30.35R
BENTON HARBOR  SUNNY     50  45  83 S5        30.34R
BIG RAPIDS     SUNNY     47  47 100 CALM      30.30R FOG
COLDWATER      SUNNY     49  48  97 CALM      30.34S
FREMONT        FAIR      49  48  97 CALM      30.30R FOG
HOLLAND        SUNNY     52  48  86 S3        30.32S
GRAND RAPIDS   SUNNY     52  47  83 SW5       30.32R
IONIA          FAIR      51  46  83 W5        30.31R
KALAMAZOO      SUNNY     50  47  89 S3        30.35R
LUDINGTON      SUNNY     52  51  97 CALM      30.29R
MARSHALL       SUNNY     47  45  90 SW5       30.34R
MOUNT PLEASANT SUNNY     53  49  87 SW7       30.29R
MUSKEGON       SUNNY     56  53  90 CALM      30.30S
SOUTH HAVEN    SUNNY     52  46  80 S3        30.33R
$$
MIZ016>042-231400-
NORTHERN LOWER MICHIGAN

CITY           SKY/WX    TMP DP  RH WIND       PRES   REMARKS
ALPENA         SUNNY     54  48  80 SW6       30.23R
BEAVER ISLAND  SUNNY     60  56  87 SW12      30.21R
BELLAIRE       SUNNY     53  52  95 S3        30.25S
CADILLAC       FOG       49  49 100 SW6       30.27S VSB<1/4
CHARLEVOIX     SUNNY     57  55  94 S3        30.26R
FRANKFORT      SUNNY     57  55  91 SW3       30.26R
GAYLORD        SUNNY     52  49  89 SW8       30.25R
GRAYLING       SUNNY     51  51 100 W3        30.27R
HARBOR SPRINGS SUNNY     56  52  86 SW6       30.23R
HOUGHTON LAKE  PTSUNNY   50  49  96 W8        30.28R
MANISTEE       CLOUDY    48  45  87 CALM      30.28S VSB 1
OSCODA         SUNNY     53  49  87 SW6       30.25R
PELLSTON       SUNNY     59  53  80 VRB6      30.21S
TRAVERSE CITY  SUNNY     55  51  86 SW6       30.24R
$$
MIZ007>008-015-231400-
EASTERN UPPER MICHIGAN

CITY           SKY/WX    TMP DP  RH WIND       PRES   REMARKS
KINROSS        SUNNY     55  54  94 SW6       30.19R
MACKINAC ISLAN SUNNY     57  55  93 SW9       30.20R
NEWBERRY       SUNNY     55  50  85 W12       30.19R
S. S. MARIE    SUNNY     51  48  89 CALM      30.17S
$$
MIZ004>006-011>014-085-231400-
CENTRAL UPPER MICHIGAN

CITY           SKY/WX    TMP DP  RH WIND       PRES   REMARKS
MANISTIQUE     SUNNY     55  51  86 SW3       30.20R
ESCANABA       SUNNY     52  48  87 CALM      30.22R
MENOMINEE      SUNNY     52  46  82 W3        30.24R
SAWYER-GWINN   SUNNY     52  48  87 SW3       30.21R
$$
MIZ001>003-009>011-084-231400-
WESTERN UPPER MICHIGAN

CITY           SKY/WX    TMP DP  RH WIND       PRES   REMARKS
IRON MOUNTAIN  SUNNY     54  49  83 NW6       30.23R
HOUGHTON       SUNNY     58  50  75 W15       30.18R
COPPER HARBOR    N/A     61  49  64 N8        30.17R
IRONWOOD       SUNNY     46  45  93 CALM      30.21S
$$

ABBREVIATIONS USED IN REMARKS
   TC - TEMPERATURE IN CELSIUS
  WCI - WIND CHILL INDEX
   HX - HEAT INDEX
  VSB - VISIBILITY



USA.gov is the U.S. government's official web portal to all federal, state and local government web resources and services.